Zurück zum Katalog

OPS 4682 DEB

AktivPO
NORAD 18675·DEBRIS·🇺🇸 United States

Gestartet Apr 3, 1965 von Vandenberg Space Force Base

Loading…

Nächste Überflüge (nächste 24 Stunden)

TLE

AktuellSource: Space-Track

Epoche: Sep 14, 2026, 05:07 UTC

1 18675U 65027AH  26257.21383175  .00000916  00000-0  30139-2 0  9993
2 18675  90.2462 356.4320 0026291  37.3408 349.6204 13.00002182870167

Verfolge OPS 4682 DEB in Echtzeit mit AllMySat

Download on the App Store